Location: Pallagorio
(39.3000°N, 16.9000°E)
Time: 21:53:11
(UTC+00:00)

Aureole 3 - Pass Details

Date: 24 January 2021
Orbit: 381 x 1231 km, 82.5° (Epoch: 03 March)

Event Time Altitude Azimuth Distance (km) Brightness Sun altitude
Rises 17:13:28 0° 350° (N) 2,426 6.6 -13.6°
Reaches altitude 10° 17:15:37 10° 348° (NNW) 1,486 5.5 -14.0°
Maximum altitude 17:18:43 71° 265° (W) 415 2.9 -14.6°
Drops below altitude 10° 17:21:39 10° 180° (S) 1,395 5.5 -15.1°
Sets 17:23:36 0° 178° (S) 2,257 6.6 -15.5°
